Novato, CA

12:15 PM PST on November 22, 2019 (GMT -0800)
Gnoss

Weather History for KDVO - September, 2019

Change the Weather History Date:

Sunday, September 22, 2019

  Actual Average (KAPC) Record (KAPC)
Temperature  
Mean Temperature 66 °F -  
Max Temperature 84 °F 82 °F 99 °F (2003)
Min Temperature 48 °F 52 °F 39 °F (2017)
Cooling Degree Days 1    
Growing Degree Days 16 (Base 50)    
Moisture  
Dew Point 52 °F    
Average Humidity 66    
Maximum Humidity 94    
Minimum Humidity 30    
Precipitation  
Precipitation 0.00 in - - ()
Sea Level Pressure  
Sea Level Pressure 29.90 in    
Wind  
Wind Speed 2 mph ()    
Max Wind Speed 16 mph    
Max Gust Speed 23 mph    
Visibility 10.0 miles    
Events      
Averages and records for this station are not official NWS values.
T = Trace of Precipitation, MM = Missing Value Source: Averaged Metar Reports

Daily Weather History Graph

Daily Weather History Graph

Search for Another Location

Airport or City:

Astronomy

Sep. 22, 2019 Rise Set
Actual Time 6:57 AM PDT 7:07 PM PDT
Civil Twilight 6:31 AM PDT 7:33 PM PDT
Nautical Twilight 6:00 AM PDT 8:04 PM PDT
Astronomical Twilight 5:29 AM PDT 8:35 PM PDT
Moon No Moon Rise 3:02 PM PDT
Length of Visible Light 13h 02m
Length of Day
12h 09m
Last Quarter, 43% of the Moon is Illuminated
Sep 22
Last Quarter
Sep 28
New
Oct 5
First Quarter
Oct 13
Full
Oct 21
Last Quarter

Hourly Weather History & Observations

Time (PDT) Temp. Heat Index Dew Point Humidity Pressure Visibility Wind Dir Wind Speed Gust Speed Precip Events Conditions
12:15 AM 55.4 °F - 44.6 °F 67% 29.90 in 10.0 mi Calm Calm - N/A   Clear
12:35 AM 55.4 °F - 48.2 °F 77% 29.90 in 10.0 mi Calm Calm - N/A   Clear
12:55 AM 53.6 °F - 50.0 °F 88% 29.91 in 10.0 mi Calm Calm - N/A   Clear
1:15 AM 55.4 °F - 48.2 °F 77% 29.91 in 10.0 mi Calm Calm - N/A   Clear
1:35 AM 51.8 °F - 46.4 °F 82% 29.91 in 10.0 mi Calm Calm - N/A   Clear
1:55 AM 53.6 °F - 48.2 °F 82% 29.91 in 10.0 mi Calm Calm - N/A   Clear
2:15 AM 53.6 °F - 50.0 °F 88% 29.91 in 10.0 mi Calm Calm - N/A   Clear
2:35 AM 53.6 °F - 48.2 °F 82% 29.91 in 10.0 mi Calm Calm - N/A   Clear
2:55 AM 53.6 °F - 46.4 °F 77% 29.91 in 10.0 mi North - - N/A   Clear
3:15 AM 51.8 °F - 46.4 °F 82% 29.91 in 10.0 mi Calm Calm - N/A   Clear
3:35 AM 53.6 °F - 50.0 °F 88% 29.90 in 10.0 mi Calm Calm - N/A   Clear
3:55 AM 53.6 °F - 48.2 °F 82% 29.90 in 10.0 mi Calm Calm - N/A   Clear
4:15 AM 51.8 °F - 46.4 °F 82% 29.91 in 10.0 mi Calm Calm - N/A   Clear
4:35 AM 53.6 °F - 48.2 °F 82% 29.90 in 10.0 mi Calm Calm - N/A   Clear
4:55 AM 53.6 °F - 48.2 °F 82% 29.90 in 10.0 mi Calm Calm - N/A   Clear
5:15 AM 53.6 °F - 48.2 °F 82% 29.90 in 10.0 mi Calm Calm - N/A   Clear
5:35 AM 50.0 °F - 48.2 °F 94% 29.91 in 10.0 mi Calm Calm - N/A   Clear
5:55 AM 51.8 °F - 48.2 °F 88% 29.92 in 10.0 mi NNW 3.5 mph - N/A   Clear
6:15 AM 51.8 °F - 48.2 °F 88% 29.92 in 10.0 mi Calm Calm - N/A   Clear
6:35 AM 51.8 °F - 48.2 °F 88% 29.92 in 10.0 mi Calm Calm - N/A   Clear
6:55 AM 50.0 °F - 46.4 °F 87% 29.93 in 10.0 mi Calm Calm - N/A   Clear
7:15 AM 48.2 °F - 46.4 °F 93% 29.93 in 10.0 mi Calm Calm - N/A   Clear
7:35 AM 51.8 °F - 48.2 °F 88% 29.93 in 10.0 mi Calm Calm - N/A   Clear
7:55 AM 55.4 °F - 50.0 °F 82% 29.93 in 10.0 mi Calm Calm - N/A   Clear
8:15 AM 57.2 °F - 51.8 °F 82% 29.93 in 10.0 mi Calm Calm - N/A   Clear
8:35 AM 59.0 °F - 53.6 °F 82% 29.93 in 10.0 mi Calm Calm - N/A   Clear
8:55 AM 60.8 °F - 53.6 °F 77% 29.94 in 10.0 mi Calm Calm - N/A   Clear
9:15 AM 64.4 °F - 53.6 °F 68% 29.94 in 10.0 mi Calm Calm - N/A   Clear
9:35 AM 64.4 °F - 53.6 °F 68% 29.93 in 10.0 mi Calm Calm - N/A   Clear
9:55 AM 66.2 °F - 53.6 °F 64% 29.93 in 10.0 mi Calm Calm - N/A   Clear
10:15 AM 68.0 °F - 53.6 °F 60% 29.93 in 10.0 mi Calm Calm - N/A   Clear
10:35 AM 69.8 °F - 53.6 °F 56% 29.93 in 10.0 mi Calm Calm - N/A   Clear
10:55 AM 71.6 °F - 55.4 °F 57% 29.93 in 10.0 mi Variable 3.5 mph - N/A   Clear
11:15 AM 69.8 °F - 55.4 °F 60% 29.93 in 10.0 mi Variable 4.6 mph - N/A   Clear
11:35 AM 71.6 °F - 57.2 °F 60% 29.92 in 10.0 mi ESE 6.9 mph - N/A   Clear
11:55 AM 71.6 °F - 57.2 °F 60% 29.94 in 10.0 mi Calm Calm - N/A   Clear
12:15 PM 75.2 °F - 55.4 °F 50% 29.92 in 10.0 mi NNW 10.4 mph - N/A   Clear
12:55 PM 77.0 °F - 53.6 °F 44% 29.92 in 10.0 mi North 9.2 mph - N/A   Clear
1:15 PM 80.6 °F 80.3 °F 53.6 °F 39% 29.91 in 10.0 mi North 8.1 mph 13.8 mph N/A   Clear
1:35 PM 82.4 °F - 51.8 °F 35% 29.90 in 10.0 mi NNW 6.9 mph - N/A   Clear
1:55 PM 84.2 °F 82.8 °F 53.6 °F 35% 29.89 in 10.0 mi Variable 5.8 mph 11.5 mph N/A   Clear
2:15 PM 82.4 °F 81.4 °F 53.6 °F 37% 29.89 in 10.0 mi SSW 9.2 mph 15.0 mph N/A   Clear
2:35 PM 82.4 °F - 51.8 °F 35% 29.88 in 10.0 mi South 6.9 mph - N/A   Clear
2:55 PM 84.2 °F 82.8 °F 53.6 °F 35% 29.87 in 8.0 mi Variable 6.9 mph - N/A   Clear
3:15 PM 84.2 °F 83.0 °F 55.4 °F 37% 29.87 in 10.0 mi SE 8.1 mph - N/A   Clear
3:35 PM 84.2 °F - 51.8 °F 33% 29.86 in 10.0 mi SW 13.8 mph - N/A   Clear
3:55 PM 84.2 °F - 50.0 °F 30% 29.86 in 10.0 mi WSW 12.7 mph - N/A   Clear
4:15 PM 82.4 °F 81.7 °F 55.4 °F 39% 29.86 in 10.0 mi SW 12.7 mph - N/A   Clear
4:35 PM 80.6 °F 80.3 °F 53.6 °F 39% 29.86 in 10.0 mi SW 16.1 mph 23.0 mph N/A   Clear
4:55 PM 78.8 °F - 55.4 °F 44% 29.86 in 10.0 mi SW 12.7 mph 20.7 mph N/A   Clear
5:15 PM 78.8 °F - 53.6 °F 42% 29.86 in 10.0 mi SW 9.2 mph 19.6 mph N/A   Clear
5:35 PM 73.4 °F - 53.6 °F 50% 29.86 in 10.0 mi South 13.8 mph 21.9 mph N/A   Clear
5:55 PM 71.6 °F - 53.6 °F 53% 29.86 in 10.0 mi SSW 10.4 mph 17.3 mph N/A   Clear
6:15 PM 71.6 °F - 53.6 °F 53% 29.86 in 10.0 mi SSW 12.7 mph - N/A   Clear
6:35 PM 71.6 °F - 53.6 °F 53% 29.86 in 10.0 mi South 10.4 mph 16.1 mph N/A   Clear
6:55 PM 69.8 °F - 53.6 °F 56% 29.86 in 10.0 mi Variable 6.9 mph 15.0 mph N/A   Clear
7:15 PM 69.8 °F - 53.6 °F 56% 29.86 in 10.0 mi ENE 9.2 mph - N/A   Clear
7:35 PM 69.8 °F - 53.6 °F 56% 29.86 in 10.0 mi Variable 5.8 mph - N/A   Clear
7:55 PM 68.0 °F - 53.6 °F 60% 29.86 in 10.0 mi East 4.6 mph 11.5 mph N/A   Clear
8:15 PM 66.2 °F - 53.6 °F 64% 29.87 in 10.0 mi East 6.9 mph - N/A   Clear
8:35 PM 66.2 °F - 53.6 °F 64% 29.88 in 10.0 mi Calm Calm - N/A   Clear
8:55 PM 64.4 °F - 55.4 °F 73% 29.90 in 10.0 mi SE 4.6 mph - N/A   Clear
9:15 PM 64.4 °F - 55.4 °F 73% 29.91 in 10.0 mi Calm Calm - N/A   Clear
9:35 PM 62.6 °F - 53.6 °F 72% 29.90 in 10.0 mi SW 5.8 mph - N/A   Clear
9:55 PM 62.6 °F - 55.4 °F 77% 29.90 in 10.0 mi SSW 4.6 mph - N/A   Clear
10:15 PM 66.2 °F - 55.4 °F 68% 29.90 in 10.0 mi South 3.5 mph - N/A   Clear
10:35 PM 64.4 °F - 53.6 °F 68% 29.90 in 10.0 mi Calm Calm - N/A   Clear
10:55 PM 62.6 °F - 55.4 °F 77% 29.91 in 10.0 mi Calm Calm - N/A   Clear
11:15 PM 60.8 °F - 53.6 °F 77% 29.91 in 10.0 mi Calm Calm - N/A   Clear
11:35 PM 62.6 °F - 57.2 °F 82% 29.91 in 10.0 mi SSW 3.5 mph - N/A   Clear
11:55 PM 60.8 °F - 55.4 °F 82% 29.91 in 10.0 mi Calm Calm - N/A   Clear